ECMWFFLT1_sfc_dewp_057.txt.gz
Dewpoint
64 64 65 65 64 64 67 65 64 66 65 65 64 63 62 61 63 66 66 66 64 63 63 63 64 65 62 61 62 64 62 63 63 62 60 60 60 61 61 61 60 61 61 61 60 58 55 56 56 59 62 62 61 59 57 55 54 54 54 52 47 48 51
64 65 65 65 65 65 64 67 65 66 64 63 62 62 62 61 62 62 63 62 64 64 61 62 63 62 63 63 64 64 64 64 64 64 64 62 60 62 62 61 61 62 62 62 61 60 59 55 54 56 58 61 60 58 57 55 52 51 48 46 43 42 46
63 63 63 64 64 64 65 65 67 65 64 63 63 62 63 61 62 62 62 61 62 61 59 59 60 62 64 64 64 65 64 64 65 64 64 63 62 61 61 60 62 61 60 61 62 59 59 59 56 53 55 56 56 56 56 54 52 49 46 46 45 40 42
63 63 64 63 64 64 63 63 64 63 63 63 63 64 63 62 63 62 62 62 62 62 60 61 63 62 64 64 64 65 64 64 65 65 64 64 64 63 62 62 61 60 59 57 58 59 59 58 55 56 56 54 54 54 54 53 51 46 43 44 41 39 39
63 63 63 63 64 63 62 64 63 63 62 63 64 63 63 62 63 63 63 62 62 62 61 61 64 63 64 63 64 64 64 65 65 64 64 63 64 62 63 62 62 61 62 60 59 61 60 59 56 55 55 54 52 50 47 50 45 42 39 37 34 36 35
64 63 63 63 63 63 63 62 63 62 60 61 60 62 62 63 62 63 62 61 61 62 62 64 66 63 63 63 63 63 63 64 64 64 63 62 63 62 62 62 61 61 60 62 63 61 61 59 56 53 53 52 52 47 46 44 41 37 35 32 30 30 32
64 64 64 62 62 63 63 62 60 58 59 60 60 61 62 62 61 62 61 61 60 61 63 65 64 64 64 62 62 63 63 65 64 64 63 64 64 63 63 61 63 60 62 61 62 61 60 59 56 54 53 51 48 44 42 40 38 34 33 28 28 30 32
65 64 62 63 62 63 60 60 59 59 58 59 59 61 61 61 61 60 60 60 60 61 61 63 64 64 64 62 61 63 62 63 62 64 62 63 63 62 63 63 62 61 60 60 64 61 58 59 57 56 52 49 46 44 41 37 36 35 31 28 26 29 35
65 63 63 64 63 64 61 59 59 59 59 59 60 59 60 61 61 60 60 60 60 60 60 59 60 61 64 63 62 62 62 61 63 64 63 64 63 63 61 63 62 62 62 61 61 62 59 61 61 59 53 50 45 41 40 37 35 31 29 27 26 31 37
65 64 63 64 63 63 62 60 59 58 60 60 59 60 60 59 60 61 59 59 60 60 59 59 59 58 62 63 62 63 63 62 63 60 62 63 63 63 62 63 61 61 61 62 63 63 62 61 61 59 53 51 47 43 39 37 37 33 28 26 26 32 37
64 64 64 61 62 60 60 59 59 59 58 58 59 60 60 60 60 59 59 60 60 59 59 58 57 58 61 60 61 61 62 62 63 62 62 62 63 63 63 64 62 60 61 63 63 62 62 62 60 59 57 51 50 46 42 39 38 36 30 31 30 31 37
64 63 64 63 62 60 59 59 60 60 60 59 59 59 59 58 60 59 59 59 59 59 58 58 58 58 58 58 59 61 62 63 61 62 62 62 62 63 62 62 61 60 62 63 62 62 63 61 59 58 57 52 50 51 48 43 38 36 35 35 32 33 36
63 63 62 62 61 59 58 59 60 59 59 57 58 58 57 57 57 57 55 57 56 58 57 57 57 57 58 58 58 57 60 60 61 61 60 61 60 61 60 61 61 59 61 60 60 62 63 61 60 58 57 53 50 51 49 46 42 37 38 35 34 32 37
64 63 62 61 60 60 60 60 59 60 57 57 57 57 56 55 55 55 54 53 53 56 57 58 57 58 57 57 56 56 56 55 54 54 56 60 57 58 60 60 59 60 60 61 60 61 60 61 61 59 56 51 49 50 49 51 42 40 42 42 37 32 37
62 58 60 60 58 58 59 59 60 58 58 57 56 55 55 55 55 55 54 53 54 53 55 55 56 56 54 56 56 55 55 53 52 53 55 54 56 59 60 60 58 59 60 60 59 57 57 59 60 58 55 49 46 49 50 44 42 41 43 44 37 34 36
62 60 59 58 58 58 60 60 58 58 58 57 56 55 54 55 55 54 54 54 54 53 53 53 55 55 55 55 54 54 54 53 53 54 54 53 52 58 59 59 58 60 60 59 59 59 59 60 57 50 48 45 44 45 44 41 43 43 44 42 43 35 39
62 60 59 58 58 59 60 60 59 59 58 57 55 57 56 54 53 54 54 52 53 53 53 53 54 53 53 53 53 53 52 54 53 53 52 50 49 54 59 58 58 59 59 60 58 57 61 57 55 51 48 47 45 42 46 47 45 46 45 44 44 35 37
61 61 58 58 59 59 59 60 59 58 58 57 57 56 53 53 51 51 53 51 52 52 52 52 53 53 54 54 53 53 51 51 53 52 52 51 56 52 58 59 59 59 60 60 58 55 57 58 52 50 47 44 42 43 45 45 42 44 44 45 45 43 42
62 59 59 60 58 59 60 59 59 58 55 55 54 53 51 50 49 48 49 50 50 51 51 52 51 51 51 52 54 54 53 52 52 51 51 50 51 53 56 59 59 58 58 60 58 57 54 53 48 49 48 44 41 43 47 45 45 43 42 41 45 44 45
63 62 62 62 59 58 59 59 58 56 54 53 51 50 49 49 50 47 47 47 47 47 48 47 49 50 50 50 51 53 53 53 52 52 51 50 51 53 55 60 59 60 60 60 56 53 53 53 52 51 50 49 43 46 47 44 41 43 44 44 43 44 42
62 62 62 61 59 59 58 58 57 55 53 50 50 49 50 49 50 48 48 46 47 48 47 45 45 46 46 49 51 52 53 54 52 53 53 51 52 52 54 58 58 59 59 58 55 54 56 52 51 51 50 49 50 49 48 48 47 44 44 46 44 45 42
63 62 60 59 58 57 57 57 55 52 53 53 53 50 50 49 48 47 47 49 48 48 51 54 51 51 51 50 49 51 52 51 52 51 51 51 52 51 52 54 59 60 60 57 51 53 54 54 55 52 52 52 52 51 50 48 48 46 46 46 47 47 46
61 58 57 57 56 57 55 54 53 52 51 51 50 49 48 48 46 46 46 46 50 59 56 55 46 42 42 49 53 46 50 51 51 51 51 50 51 51 51 53 57 57 54 53 49 45 44 45 48 56 56 54 55 51 51 50 49 48 48 47 46 46 46
59 58 56 56 56 55 54 54 52 51 54 56 56 55 52 50 50 49 50 57 57 55 52 45 40 39 39 40 48 56 48 49 50 50 50 49 50 51 52 50 51 55 56 54 59 44 43 43 42 42 43 45 50 62 51 52 49 50 47 47 47 46 45
57 58 56 56 56 57 57 56 56 56 57 57 56 57 58 55 57 57 55 53 52 50 46 39 38 39 40 39 40 50 54 51 50 50 50 49 48 50 51 51 50 51 51 52 47 52 50 43 42 42 41 41 42 41 43 54 52 48 48 46 46 46 46
55 55 55 55 55 54 54 55 55 57 58 58 58 57 57 57 55 53 51 49 48 46 43 39 37 38 38 38 39 44 49 50 49 48 49 49 49 49 50 51 52 53 52 56 51 49 49 54 44 42 43 43 42 41 40 40 41 52 50 51 49 47 45
54 54 54 54 54 55 56 56 57 56 56 57 57 57 57 55 52 50 48 46 44 42 41 39 37 37 38 38 37 40 50 52 50 49 49 49 50 50 50 50 50 51 52 52 50 53 49 50 52 52 53 53 51 52 42 40 40 39 47 52 50 48 49
52 53 53 54 53 52 54 54 54 56 54 54 54 54 54 52 50 49 47 45 43 42 41 37 37 37 37 37 37 39 55 55 51 51 51 52 53 53 53 54 53 53 52 52 54 59 53 51 53 54 53 51 50 50 53 53 52 51 52 52 50 50 51
50 48 49 49 49 49 50 52 52 53 50 49 50 51 52 52 51 49 47 46 44 41 41 37 36 36 36 36 37 53 57 54 51 50 50 51 51 51 51 51 51 51 51 52 49 45 47 57 52 52 53 53 52 52 52 52 52 51 56 54 54 53 53
46 46 47 48 49 50 52 51 48 47 47 47 46 46 47 47 48 49 47 46 45 42 39 38 36 36 36 36 41 53 53 52 53 53 54 54 52 51 52 52 52 50 57 54 41 39 38 42 51 49 49 50 51 50 50 57 49 46 47 47 45 44 41
42 43 44 44 46 47 47 46 47 47 46 45 46 46 44 44 45 46 48 48 45 43 40 38 36 36 36 36 39 51 50 50 51 53 55 57 55 55 59 54 57 58 56 50 39 39 38 49 55 53 52 50 50 50 50 51 57 57 43 42 41 40 40
43 43 45 44 43 43 44 44 44 45 45 44 44 44 43 43 47 45 44 45 48 47 43 40 36 36 36 36 40 48 47 45 49 50 50 50 53 53 56 48 45 46 47 42 37 38 38 45 55 56 56 55 52 50 50 55 57 58 55 55 54 54 52
41 41 40 41 42 42 41 42 42 42 41 40 42 41 41 42 43 43 43 43 44 46 44 40 38 36 36 36 37 46 48 44 45 44 46 45 46 47 53 49 43 37 37 37 37 36 38 37 48 52 54 56 56 52 53 54 56 58 58 57 57 57 56
41 40 40 41 42 41 41 42 42 42 44 45 44 44 42 42 41 41 43 44 41 40 43 42 38 36 36 36 36 37 44 43 40 40 42 40 41 43 44 50 45 37 37 37 37 37 37 37 37 47 51 53 55 47 44 53 54 50 56 57 57 56 56
42 42 42 42 42 41 41 41 42 41 40 41 42 42 41 41 41 41 42 42 45 42 40 43 40 36 36 36 36 36 39 39 36 38 40 38 39 40 41 43 44 38 36 36 37 37 37 37 37 44 47 42 40 40 47 48 51 53 54 56 55 55 55
42 41 42 42 42 41 41 41 41 42 43 42 41 40 40 40 41 40 41 41 41 43 41 38 38 39 36 36 35 35 35 36 35 42 39 39 39 39 40 43 43 38 36 36 36 37 37 37 38 42 39 39 39 38 41 47 48 50 51 53 54 56 54
41 42 42 41 41 42 42 40 38 40 39 39 39 39 38 39 38 38 38 38 40 39 42 40 38 38 38 35 36 35 35 35 35 38 37 35 36 38 42 40 38 36 36 36 36 36 36 36 39 38 38 38 38 39 45 47 46 49 48 50 51 52 51

ECMWFFLT1_sfc_dewp_060.txt.gz
Dewpoint
64 64 66 66 66 66 66 65 66 66 65 65 65 64 65 65 66 67 67 67 66 64 65 66 66 67 65 63 65 66 65 66 64 62 61 63 62 62 64 64 63 64 63 62 58 57 56 55 57 61 62 62 62 62 60 59 56 57 57 57 56 57 56
66 66 66 66 65 65 65 65 65 65 65 65 65 64 65 64 65 66 66 67 67 66 65 64 65 65 67 65 65 66 64 65 66 64 63 62 63 62 62 63 64 63 62 61 61 59 58 56 55 57 58 61 61 59 59 54 53 54 56 53 50 49 51
65 65 65 64 65 65 64 64 65 64 65 64 64 64 64 62 64 65 65 64 66 65 65 64 64 66 66 65 65 66 65 65 66 65 64 64 63 63 63 63 61 62 60 61 61 60 59 58 55 56 57 57 56 57 57 54 53 52 47 47 47 45 48
64 64 63 63 64 64 64 63 64 64 65 65 66 65 64 65 66 65 65 65 64 65 63 62 64 63 67 66 66 66 65 65 65 65 64 63 63 63 64 63 61 61 60 59 59 60 59 58 57 56 57 58 54 54 55 52 49 46 43 48 45 43 44
64 63 64 63 64 63 63 63 64 64 63 64 65 65 65 67 67 67 67 66 66 66 66 66 66 65 65 66 66 66 65 66 66 65 64 63 63 63 63 63 63 62 62 61 60 61 59 58 57 55 56 56 52 52 51 54 49 45 41 38 36 39 41
64 64 64 64 64 63 63 62 62 63 63 63 63 63 65 66 66 66 66 66 66 65 65 65 68 64 65 65 65 64 64 64 65 65 64 63 63 62 62 65 65 63 62 63 63 61 61 61 60 56 55 55 52 51 50 49 46 41 40 36 33 34 41
64 64 64 64 64 64 64 63 63 62 62 62 62 64 65 65 65 66 66 65 65 65 66 67 66 66 66 63 64 64 63 65 65 65 64 64 64 64 64 62 64 62 64 64 63 63 61 60 58 56 54 54 49 46 46 44 40 36 34 31 31 34 36
64 64 64 64 64 65 64 63 62 63 62 61 62 64 64 65 65 65 65 65 64 65 65 66 67 66 67 65 63 65 64 65 65 64 64 63 64 63 64 63 63 62 62 62 63 62 60 60 59 57 55 51 49 47 44 40 36 35 31 29 31 33 38
64 65 64 63 63 64 63 63 62 63 63 63 63 64 65 65 64 64 64 64 64 64 64 65 65 65 67 66 64 64 64 62 65 64 64 63 64 64 63 63 63 62 62 62 62 62 61 62 62 59 57 52 46 45 46 41 37 32 27 27 31 37 40
65 64 63 62 62 62 62 62 62 62 63 63 63 64 64 65 65 64 63 63 65 65 64 64 63 63 66 66 65 64 64 63 64 62 64 63 64 64 63 63 63 63 64 64 64 64 64 63 62 62 61 56 48 46 43 40 43 33 26 27 33 37 38
64 64 63 62 62 62 63 63 62 63 62 62 62 62 65 64 65 64 63 63 64 64 64 63 62 61 65 66 64 65 64 64 64 64 64 63 63 63 63 62 63 62 63 62 62 63 63 63 62 62 61 59 55 47 45 41 39 39 34 33 35 36 39
65 65 65 63 63 62 62 62 62 62 63 62 61 63 63 62 64 64 63 61 63 63 63 63 63 62 63 63 63 65 65 65 64 64 64 64 64 63 63 62 62 62 63 62 62 62 63 63 62 64 62 59 56 55 46 44 38 42 36 37 36 37 39
63 63 63 63 63 61 62 62 61 62 63 61 62 62 61 62 62 62 61 61 62 62 63 61 62 62 63 63 63 61 63 64 64 63 63 62 61 63 63 62 62 62 63 62 61 62 62 62 61 61 60 59 57 56 55 43 40 39 42 43 38 37 40
64 63 62 62 62 63 61 61 62 62 60 61 61 61 61 60 58 59 57 58 58 61 62 62 63 62 62 61 62 62 60 60 58 60 60 62 61 62 61 60 61 62 62 61 61 62 61 61 61 61 58 58 57 55 54 48 39 39 46 45 40 38 40
63 62 61 62 62 65 61 62 62 60 61 60 60 59 58 61 60 60 57 56 58 57 60 61 62 61 59 61 61 62 60 58 56 57 59 59 59 60 63 60 60 60 61 60 61 60 60 60 58 58 58 57 53 55 55 48 40 41 44 41 40 39 41
62 61 61 61 63 64 62 62 60 61 60 59 61 60 59 59 58 60 57 60 56 57 57 58 60 61 60 60 59 60 60 57 59 57 58 58 55 59 61 61 60 61 61 61 62 63 63 62 58 56 56 55 52 51 50 47 42 45 43 43 43 38 40
61 61 60 60 62 63 62 61 61 60 59 59 58 62 59 57 58 60 59 57 57 57 58 56 60 59 56 57 58 58 57 59 58 58 58 55 53 58 61 61 60 60 61 62 61 61 61 61 61 58 57 53 53 49 53 48 44 44 45 43 39 35 41
61 61 61 61 62 63 62 61 61 59 60 59 59 59 58 59 59 58 59 56 55 57 56 54 57 58 58 59 59 59 57 57 59 57 57 54 57 58 60 61 60 60 61 61 61 60 59 60 59 58 55 52 46 49 54 48 45 45 46 45 45 42 41
61 61 60 62 62 61 62 62 62 60 58 58 58 59 58 56 54 52 53 54 53 54 56 54 55 56 54 57 58 61 58 59 57 56 53 57 56 58 60 61 61 61 61 62 60 60 59 58 57 56 53 46 41 47 49 51 51 47 46 46 44 50 41
61 61 61 60 61 61 62 63 61 59 58 57 56 57 56 57 58 55 56 55 55 57 54 52 56 57 56 55 57 57 59 58 57 59 56 56 55 59 59 60 61 61 60 61 60 60 59 58 57 54 53 55 47 48 52 50 46 46 47 46 45 47 45
59 60 60 60 61 62 61 61 61 60 57 55 56 54 54 54 57 57 52 54 53 54 51 50 49 50 51 55 57 57 58 59 58 57 58 57 57 57 60 61 61 61 61 61 61 59 58 57 56 54 56 54 55 47 49 51 50 47 49 46 45 45 47
62 61 62 61 60 60 60 60 61 58 54 55 57 53 54 54 56 51 52 55 56 55 53 49 46 46 48 50 53 56 57 56 57 58 56 57 56 56 60 61 60 61 60 56 50 51 52 57 61 55 55 55 56 53 52 51 51 51 51 49 49 49 48
60 61 62 60 60 60 59 59 58 55 55 55 55 55 54 55 51 52 55 55 54 53 50 48 43 41 42 47 52 51 56 57 57 57 56 56 56 56 59 60 61 59 54 53 49 44 43 44 48 54 55 58 57 56 55 51 51 50 51 49 48 49 48
60 60 60 59 59 58 56 56 55 56 57 57 57 56 54 57 56 54 53 52 50 49 46 41 39 38 39 41 48 52 53 56 57 57 56 56 56 56 56 55 55 55 55 56 51 43 42 41 41 41 42 44 50 60 56 54 53 55 52 52 51 51 50
60 60 61 58 58 56 56 58 57 57 57 58 58 58 56 54 53 52 51 48 47 46 43 40 37 38 38 39 42 49 53 53 56 56 55 55 56 56 55 53 54 56 56 56 54 51 49 42 41 41 41 41 41 41 46 55 55 54 54 51 52 51 50
56 57 56 56 56 56 56 56 56 56 57 57 57 56 54 53 51 50 47 45 43 42 41 38 37 37 38 38 38 46 50 53 54 56 54 56 56 57 54 53 55 56 54 56 52 53 53 53 44 42 43 44 45 41 40 41 42 51 50 49 49 51 52
54 54 54 54 55 55 56 56 57 57 57 56 56 55 53 51 50 48 45 42 41 40 39 38 36 37 37 37 37 41 52 54 57 56 55 57 58 56 57 56 56 56 55 55 55 57 53 52 52 52 53 53 52 51 46 41 39 39 48 53 52 49 51
53 53 53 53 53 54 54 54 55 56 57 57 56 53 52 50 48 47 45 43 42 41 40 36 36 36 36 36 37 43 56 58 57 56 56 57 56 57 57 57 55 57 55 51 46 43 53 57 54 55 54 54 54 54 54 53 51 49 50 51 52 52 52
52 52 51 52 53 53 53 53 53 54 54 55 54 55 52 50 49 47 47 46 42 39 38 35 35 35 35 36 39 54 58 58 57 56 55 55 56 56 56 57 56 55 51 49 42 39 42 50 55 55 57 56 54 54 54 53 49 47 51 52 51 51 52
51 51 52 51 51 52 52 52 52 52 50 50 49 48 49 50 50 49 47 44 42 40 38 36 35 35 35 35 41 51 52 52 57 57 56 57 56 53 53 57 56 53 50 45 39 38 41 48 55 55 53 53 54 54 54 58 49 45 45 46 46 43 42
48 49 49 49 49 50 51 50 50 49 48 47 46 46 46 47 47 48 47 46 43 41 39 37 35 35 35 36 40 50 49 49 53 51 55 59 58 52 46 49 51 47 44 41 36 37 39 48 54 55 56 56 56 54 53 54 58 57 48 46 45 44 42
48 48 48 48 48 48 48 49 50 50 49 46 45 44 45 46 46 46 46 47 48 43 38 37 36 35 35 35 41 48 47 47 45 45 46 48 56 49 43 42 42 41 40 38 36 36 37 44 47 49 51 53 54 55 51 51 53 54 54 56 56 56 53
48 48 47 48 49 49 49 50 49 50 46 43 44 45 45 46 45 44 45 45 46 43 38 36 37 35 35 35 38 46 42 39 38 39 42 42 46 51 45 40 39 36 36 36 36 36 36 38 43 45 47 48 50 52 48 47 49 50 51 52 54 56 56
49 49 49 49 50 49 50 47 48 45 44 45 46 45 45 44 45 45 43 42 42 43 41 38 37 36 36 35 36 39 37 35 36 40 42 41 42 46 47 42 39 37 36 36 36 36 37 37 38 43 45 45 47 44 42 45 45 45 48 50 52 54 56
49 48 49 49 49 48 48 46 45 44 44 45 46 46 46 44 45 45 45 43 41 39 40 42 38 36 36 36 36 36 37 37 38 42 41 39 39 41 44 43 40 37 36 36 36 36 37 37 37 42 43 40 39 39 43 44 45 46 47 46 46 48 52
46 45 45 46 47 45 45 44 45 46 45 45 45 45 46 44 44 44 45 44 41 40 40 40 38 38 36 36 36 36 35 37 36 40 38 38 40 41 40 40 40 39 36 36 36 36 36 36 37 39 38 38 38 37 38 45 45 46 45 44 45 45 46
41 41 43 44 43 44 46 44 44 46 45 44 43 43 41 43 43 43 43 42 42 40 40 39 38 38 37 35 35 35 35 35 35 38 41 42 40 40 39 40 38 36 36 37 36 36 36 36 37 36 36 36 37 37 43 44 44 45 43 44 44 44 44

ECMWFFLT1_sfc_dewp_063.txt.gz
Dewpoint
63 63 64 64 64 65 64 64 64 64 64 64 64 65 65 65 64 64 63 64 65 65 65 64 64 64 63 63 63 62 62 62 62 61 60 61 60 60 61 60 60 60 60 59 58 56 56 55 57 60 60 59 60 61 61 61 58 59 60 60 60 59 55
64 64 64 65 64 64 63 63 63 63 64 64 64 64 64 64 64 64 64 64 65 65 64 65 64 64 63 63 63 63 62 62 62 62 61 61 60 60 60 60 60 59 58 59 59 57 57 56 56 57 58 59 58 59 60 60 57 58 59 59 58 56 55
64 64 64 64 64 63 62 62 62 62 63 62 64 64 64 64 64 64 65 65 65 65 64 64 64 63 63 63 63 63 63 63 62 62 61 61 61 61 61 60 58 58 58 57 58 57 57 57 56 56 57 56 55 56 58 54 54 54 52 53 54 53 53
63 63 63 63 63 62 61 61 61 62 62 62 64 64 63 63 63 64 64 64 63 64 64 62 61 64 64 64 64 64 64 63 62 62 61 61 61 61 60 59 59 59 58 57 57 57 56 55 56 56 56 56 55 54 53 51 48 47 48 50 50 51 51
63 63 63 62 63 61 61 61 61 62 62 63 63 63 63 64 63 64 63 63 62 62 63 62 62 63 65 64 64 64 64 63 63 62 61 60 61 61 60 60 60 60 59 58 59 58 57 56 56 56 56 57 53 52 51 52 46 44 45 45 46 46 48
63 63 62 62 62 61 61 61 61 61 61 61 62 62 62 63 63 63 62 62 62 63 63 64 64 64 64 64 64 64 64 63 63 62 61 61 61 61 60 60 61 61 59 59 60 59 58 57 57 56 56 56 52 51 50 50 46 44 41 39 44 47 48
63 62 62 62 62 62 61 61 61 61 61 61 61 61 62 64 63 62 63 62 62 63 64 63 63 64 65 64 64 64 64 63 63 62 62 61 61 61 61 61 62 61 61 61 60 60 58 57 57 56 55 55 52 50 50 49 44 39 37 39 45 46 46
62 62 62 62 62 62 61 61 61 61 61 61 61 61 64 62 63 63 62 62 62 63 63 63 63 63 63 63 63 63 64 63 63 62 62 61 61 62 61 61 61 60 61 61 61 60 58 57 57 56 55 53 50 49 49 46 40 38 33 37 42 42 44
63 62 62 62 62 62 62 61 61 61 61 61 62 63 63 62 62 62 62 62 63 63 63 64 64 64 63 62 62 63 63 64 63 62 61 62 62 62 61 61 60 59 60 61 61 61 59 58 57 57 55 51 48 46 47 42 39 35 31 34 39 42 44
63 62 62 62 62 62 62 61 61 61 61 62 62 62 62 62 62 61 61 61 61 62 62 63 62 63 63 63 62 62 62 63 63 63 62 62 61 62 61 61 60 60 60 60 60 61 61 60 58 56 55 49 48 46 44 38 38 32 30 36 37 40 42
63 62 62 62 62 61 60 61 61 60 62 62 61 62 61 61 61 62 60 60 61 61 61 62 62 63 63 63 62 62 62 62 62 62 62 62 62 62 61 61 61 61 61 61 61 60 60 60 59 57 57 52 48 45 43 38 38 33 33 38 38 38 41
62 61 61 61 61 60 60 60 60 61 61 61 61 61 60 60 61 60 60 60 60 59 59 60 61 62 62 62 62 62 62 62 62 61 62 62 62 62 61 60 60 60 61 60 60 61 60 60 60 60 60 57 53 47 43 40 33 35 35 38 40 39 41
62 61 61 61 60 60 60 61 61 60 59 60 60 60 60 60 60 59 59 59 59 59 59 59 60 60 61 61 61 62 62 62 62 61 61 62 62 62 61 60 60 60 60 60 60 60 60 60 60 60 59 58 58 53 43 37 33 34 37 39 39 40 41
62 62 61 61 61 61 61 61 60 59 59 59 59 59 60 59 59 59 59 59 58 59 57 58 60 59 60 60 60 61 61 60 61 61 60 61 62 62 61 61 60 61 61 60 59 60 60 60 59 59 58 58 57 54 40 37 33 35 42 41 41 40 40
62 62 61 61 61 62 60 60 59 59 58 58 59 59 58 58 58 58 58 58 59 58 58 59 57 58 57 57 58 61 60 60 59 59 59 60 60 61 61 61 61 61 61 60 60 61 60 60 59 59 57 57 55 55 44 38 35 36 37 40 42 40 40
61 60 60 61 62 62 60 59 59 58 57 58 58 58 58 58 57 57 57 57 57 56 57 56 58 58 57 58 57 58 58 58 57 57 57 59 59 61 60 59 59 60 61 60 60 60 60 60 58 58 57 56 55 53 47 36 37 40 37 39 41 40 40
61 60 60 61 62 62 61 60 58 58 57 58 59 58 57 56 57 55 56 56 56 56 56 55 57 57 56 56 56 56 56 57 56 55 56 56 57 59 59 59 58 60 60 60 60 59 59 59 57 57 56 55 54 53 48 39 38 41 38 38 40 39 40
59 59 59 61 61 61 61 59 57 56 57 58 58 56 56 57 57 56 56 55 55 55 53 54 54 56 56 56 57 54 54 55 55 55 56 56 60 59 58 59 59 60 60 59 58 57 57 57 59 56 55 53 53 53 51 42 42 40 38 38 40 41 41
59 59 59 59 61 61 60 59 58 57 58 57 55 55 55 55 54 54 54 54 54 54 53 53 53 54 53 53 55 55 55 54 55 55 54 56 58 59 59 59 59 60 60 59 58 57 56 56 58 56 55 53 52 50 48 42 44 42 38 38 39 41 41
60 59 59 60 61 60 60 60 57 58 57 55 54 54 54 53 52 53 53 50 49 49 48 48 49 50 51 53 54 56 55 54 55 51 53 57 59 60 60 59 59 59 59 58 58 58 57 56 57 57 56 55 53 49 47 45 45 43 41 42 43 42 40
59 58 60 60 60 60 60 59 57 55 54 53 54 53 51 52 53 53 53 51 49 48 46 45 45 46 48 51 53 54 55 53 55 54 55 57 59 59 59 59 59 59 59 59 58 57 57 57 58 56 55 54 52 48 46 46 45 45 44 45 43 43 40
58 59 59 60 59 59 58 57 57 53 53 53 53 51 53 54 53 51 50 49 47 46 45 44 44 45 46 47 51 52 53 54 53 53 53 57 59 59 58 58 58 58 58 56 54 57 57 57 57 55 54 54 50 47 48 47 46 46 46 45 44 45 42
59 59 59 58 59 58 58 58 55 54 54 54 55 55 54 53 51 49 47 46 44 44 43 43 42 41 43 46 49 50 52 51 53 54 52 55 58 58 58 58 59 58 54 51 48 45 45 48 53 56 56 54 53 53 50 49 48 48 48 45 46 44 44
59 58 58 58 59 58 58 58 58 57 56 55 54 52 50 49 48 47 45 43 42 41 40 40 39 38 39 41 48 50 51 51 52 53 53 54 56 57 56 57 54 55 52 50 46 42 41 41 42 42 44 48 54 55 53 52 51 51 49 49 49 47 45
58 58 58 58 57 57 58 58 57 55 53 52 51 50 48 47 45 43 42 40 39 39 38 39 37 38 38 38 43 50 50 52 53 53 52 53 55 56 55 54 52 54 54 52 46 45 44 42 40 40 40 40 40 42 46 48 47 48 47 46 46 48 48
57 57 57 57 57 57 57 57 56 54 52 51 49 47 46 44 42 41 39 37 36 36 35 37 36 37 37 38 38 45 50 53 54 53 53 54 54 52 52 52 52 54 55 55 52 52 47 44 43 42 42 42 40 40 39 41 44 47 47 45 44 47 49
56 56 56 56 56 55 55 55 55 53 51 50 48 46 44 42 41 40 38 36 34 34 34 37 36 37 37 38 39 44 53 55 55 53 53 54 54 54 54 54 53 50 48 47 46 47 52 50 47 47 48 49 49 45 40 40 40 43 47 49 48 42 48
53 54 54 54 53 53 53 54 54 53 52 50 48 46 44 43 42 40 38 35 33 33 35 36 35 36 37 39 43 48 54 56 55 53 53 54 55 55 54 52 51 49 46 43 43 44 49 52 51 52 50 50 50 51 51 50 47 45 45 48 47 45 45
52 52 52 52 51 51 51 51 51 51 51 51 49 47 46 44 42 39 38 35 33 32 33 35 35 37 38 40 45 50 50 54 55 54 51 50 50 52 51 49 45 41 40 39 39 41 46 54 55 54 54 54 54 53 53 52 46 47 49 49 49 49 50
49 49 48 49 50 50 50 49 49 49 47 48 47 48 47 44 42 41 39 36 33 32 32 35 35 36 39 41 45 48 47 46 49 52 46 43 44 45 44 42 40 38 38 38 38 38 42 47 50 51 52 53 53 52 50 48 46 45 45 44 45 45 44
48 47 48 48 48 48 49 49 49 49 47 46 46 46 46 46 45 43 39 36 34 32 32 35 35 36 38 39 42 44 43 42 43 49 47 43 41 41 43 45 43 38 36 38 36 36 38 41 42 44 47 49 50 51 48 45 45 45 43 42 42 44 46
47 47 47 47 48 48 48 49 49 49 49 47 45 45 45 45 45 43 40 37 38 33 33 36 35 35 36 37 38 36 37 38 40 42 46 44 41 39 38 40 41 40 38 38 36 36 36 38 39 42 44 43 43 46 45 44 43 43 43 43 43 47 47
48 48 47 48 48 48 48 49 48 48 48 47 45 44 43 43 43 43 41 37 36 35 35 36 36 35 36 36 36 35 36 38 40 41 42 46 42 40 38 37 39 36 36 36 36 36 36 37 39 42 42 42 40 39 43 42 43 43 43 44 45 47 48
48 48 49 48 48 48 49 48 49 48 48 49 48 45 43 41 41 40 39 38 37 38 38 36 37 36 36 36 36 36 36 37 38 39 39 42 44 42 40 39 39 38 36 36 36 36 36 36 38 41 41 39 43 42 40 41 42 43 43 44 45 45 45
49 48 49 49 48 48 49 49 49 49 49 48 47 46 43 42 40 38 37 38 38 39 41 40 37 36 36 36 36 37 37 37 38 38 39 39 39 39 39 39 39 38 36 36 36 36 36 37 36 40 38 38 38 37 40 42 42 43 43 43 43 42 43
47 50 49 49 48 48 49 49 48 49 48 48 46 44 44 43 41 39 38 38 39 39 39 39 38 37 36 36 36 36 36 36 37 41 39 39 39 39 39 38 39 39 36 36 36 36 36 36 38 37 37 37 37 35 37 41 41 42 41 41 42 42 41
45 46 46 47 47 47 47 47 47 48 46 46 45 43 43 44 42 40 39 39 39 39 38 37 38 37 37 36 36 36 35 35 36 39 41 39 39 39 38 38 38 36 36 36 36 36 37 37 36 36 35 36 36 36 39 39 39 40 39 39 40 41 42

ECMWFFLT1_sfc_dewp_069.txt.gz
Dewpoint
63 62 62 62 63 63 63 63 63 63 63 64 64 64 64 64 64 63 63 62 63 63 64 63 62 62 62 62 62 62 61 61 61 60 60 61 59 59 59 58 58 57 58 55 56 55 54 54 56 59 59 58 59 60 60 60 59 60 60 60 58 56 55
62 62 62 63 62 63 62 62 63 63 63 63 63 64 64 64 64 63 62 62 62 63 64 63 62 62 62 62 61 61 61 61 61 60 60 61 60 58 58 55 57 56 56 56 56 55 54 55 55 56 57 58 58 57 58 59 58 59 60 59 58 56 56
61 61 62 62 62 62 62 62 62 63 63 63 63 63 63 63 63 63 62 62 62 62 63 62 63 62 62 62 62 61 61 61 60 60 60 60 60 59 59 57 55 55 55 54 54 53 54 54 55 55 57 57 56 56 57 57 58 58 58 58 56 55 54
61 60 61 62 63 63 62 62 62 62 62 62 62 63 63 63 63 63 63 62 62 63 64 62 63 63 62 62 62 61 61 61 61 60 60 59 60 59 58 58 57 57 56 55 55 54 53 53 55 56 57 58 56 55 56 56 58 59 58 56 55 54 54
63 62 62 62 63 62 62 62 61 61 61 61 61 62 62 62 62 62 63 62 62 62 63 63 63 62 62 62 62 61 61 61 61 60 60 59 59 59 58 58 58 58 56 56 56 56 55 54 55 56 57 57 56 54 54 54 57 58 57 55 54 54 53
63 63 63 63 63 63 62 61 60 60 60 60 61 61 62 62 62 62 62 62 63 63 63 63 63 63 62 61 62 61 61 61 61 60 60 59 59 59 59 58 58 58 57 56 57 56 55 56 56 56 57 57 54 52 50 53 53 54 55 54 53 53 52
63 63 63 63 62 62 61 61 61 61 61 61 61 61 62 62 62 62 62 63 63 63 63 62 62 62 62 61 61 61 61 61 60 60 60 60 60 59 59 58 58 58 56 57 57 56 56 56 56 56 56 54 50 50 48 50 48 52 48 50 50 51 51
62 63 63 62 61 61 61 60 61 61 61 61 61 62 62 62 62 62 62 62 62 62 62 62 62 62 62 62 62 62 61 61 60 60 60 59 60 59 58 59 59 58 57 58 58 57 57 56 56 56 56 53 48 47 47 46 46 53 50 45 48 50 50
62 62 60 59 61 61 61 60 60 61 62 62 62 61 61 61 62 62 61 62 62 62 62 62 62 62 62 62 61 61 61 62 60 59 59 59 59 59 58 58 58 59 58 58 58 57 57 57 57 57 56 54 50 47 46 45 44 49 43 47 44 48 49
62 61 61 60 60 60 60 60 61 60 61 62 62 61 61 61 62 62 62 62 62 61 62 62 62 62 62 62 61 61 61 61 60 60 59 59 59 59 58 58 59 59 58 58 58 57 57 57 57 57 56 53 51 48 46 45 43 46 38 45 47 45 48
62 62 61 61 61 60 60 60 60 60 60 61 61 61 61 61 61 63 62 61 61 61 61 62 62 62 62 62 61 61 61 61 60 59 59 59 58 59 58 58 58 58 58 59 59 58 57 57 57 57 56 53 51 49 47 46 45 42 39 42 43 43 46
60 61 62 61 61 60 60 60 60 60 60 60 61 61 61 61 61 61 61 61 61 61 61 62 62 62 62 61 61 61 61 61 60 59 59 59 59 59 58 58 57 57 58 58 58 57 57 57 57 57 56 53 52 50 48 47 44 45 41 42 41 41 44
61 61 61 60 61 61 60 60 60 59 59 60 60 61 61 61 60 60 61 61 61 61 61 61 62 61 61 61 61 60 60 61 60 60 59 59 60 59 59 58 58 58 57 58 58 58 57 57 57 57 56 53 51 50 49 47 46 46 41 43 42 40 44
60 61 61 61 61 61 61 60 60 60 60 60 60 60 60 60 60 60 61 61 61 60 61 61 61 61 61 60 60 60 60 61 60 59 59 59 59 59 59 59 58 58 58 58 58 58 57 57 57 56 55 52 51 49 47 46 45 37 37 42 43 41 44
61 61 61 60 61 61 60 60 60 60 60 60 61 61 61 61 60 60 60 61 61 60 61 61 60 61 61 60 60 60 60 60 60 59 59 59 59 60 59 59 59 58 58 58 58 58 58 58 57 57 56 53 51 48 46 45 43 37 35 39 41 43 44
61 60 60 60 60 60 60 59 60 60 60 60 60 60 61 60 60 60 60 60 60 60 60 60 60 60 60 60 60 59 60 60 59 59 59 59 59 59 58 58 58 58 58 57 57 58 58 58 58 57 57 56 52 49 44 42 39 38 36 38 41 41 42
60 60 59 59 59 59 60 60 61 60 60 60 60 60 61 60 60 60 60 58 59 59 59 59 59 60 60 60 60 59 59 59 59 59 59 59 59 59 59 58 58 58 58 58 57 56 57 58 58 58 57 56 57 55 47 42 41 41 37 37 40 39 41
60 60 60 59 58 59 60 60 60 60 60 59 60 60 60 60 60 59 58 58 57 58 59 59 59 58 59 59 60 59 59 58 59 59 59 59 61 59 59 59 58 58 58 58 55 56 56 57 58 57 56 57 57 55 52 44 39 41 38 37 39 41 42
59 59 59 59 59 60 60 60 59 60 60 59 60 60 59 60 60 59 57 56 56 57 57 58 58 57 57 57 58 58 58 58 58 57 57 58 59 59 59 58 58 58 58 58 57 56 56 57 57 56 56 57 57 54 51 45 41 39 38 37 39 41 40
59 59 59 60 60 60 60 59 59 59 60 59 59 59 59 59 58 57 53 53 52 52 53 53 53 54 55 55 56 56 56 56 56 55 55 57 58 58 58 58 57 58 58 58 58 57 56 56 56 56 56 56 57 55 52 47 40 38 38 38 40 40 41
59 59 59 59 60 60 59 59 59 59 59 58 58 58 58 56 54 51 49 49 49 49 49 49 50 51 53 54 54 54 55 55 54 53 53 54 56 57 56 56 57 58 59 59 58 57 57 56 55 55 56 56 56 54 51 45 42 39 39 40 40 40 41
58 58 58 59 59 59 59 59 58 58 58 57 56 57 56 53 50 47 46 47 46 47 47 46 47 48 51 52 53 53 53 54 54 54 54 54 55 55 55 55 55 55 57 60 56 56 56 55 55 55 54 54 55 53 50 45 44 40 40 40 40 41 40
58 58 58 59 59 58 58 58 58 57 57 56 54 53 52 51 47 45 45 44 44 45 44 45 45 44 47 50 52 52 53 53 54 55 55 55 54 54 54 53 55 57 55 55 53 52 50 52 54 55 54 55 55 53 51 49 45 42 40 39 40 40 40
58 58 58 58 58 57 57 57 56 56 55 54 52 51 51 47 45 45 44 43 42 42 42 41 40 39 41 46 51 52 53 54 54 55 55 55 54 53 51 51 52 55 52 50 48 45 47 48 49 50 51 53 54 53 50 50 48 43 40 39 40 40 40
57 57 57 57 57 56 56 56 54 53 52 51 51 50 48 45 43 42 42 41 41 41 41 41 38 40 41 45 49 52 53 54 55 54 54 54 54 52 51 50 48 49 51 52 48 46 47 44 42 41 40 40 40 40 45 49 48 44 42 41 42 41 40
56 56 56 56 56 56 55 53 51 50 49 49 49 46 43 44 41 41 41 41 41 42 42 40 39 41 43 46 47 50 53 53 53 53 53 53 52 50 49 48 46 46 47 52 50 47 44 43 43 44 45 45 43 42 41 41 43 46 45 43 43 43 42
55 55 55 55 54 53 51 50 49 48 47 47 46 44 41 40 39 40 41 41 42 42 42 40 40 43 44 44 46 49 53 52 52 52 52 51 49 47 46 44 44 43 43 46 47 48 47 47 49 50 49 47 45 44 42 41 43 44 45 46 45 44 44
54 53 53 52 51 50 48 48 46 46 46 45 44 39 38 37 38 39 40 41 40 40 40 39 42 43 44 44 44 46 49 47 46 44 43 42 41 41 40 40 39 39 40 42 45 49 51 51 50 49 46 43 43 42 43 44 44 46 48 49 49 49 48
51 52 51 50 49 48 47 46 45 46 44 43 41 36 35 36 36 37 38 38 38 38 38 39 42 43 42 42 43 46 45 43 42 40 39 39 38 38 38 37 36 36 36 39 41 45 49 52 51 48 45 43 41 41 43 44 40 41 45 47 48 48 48
48 49 49 49 48 47 46 46 46 46 44 43 41 39 34 34 34 34 35 36 37 37 38 38 40 41 40 40 41 43 41 40 39 39 39 40 41 42 41 37 34 34 35 36 37 38 41 45 46 45 42 41 39 39 40 42 40 39 40 40 41 41 42
47 47 47 47 47 47 47 46 46 45 43 42 41 40 38 38 38 37 36 37 37 37 38 39 39 41 41 40 41 41 40 39 37 37 37 38 39 40 43 44 40 35 35 36 36 36 36 38 39 40 37 36 37 36 39 41 41 41 40 40 40 41 41
48 47 47 47 47 46 46 45 45 44 43 42 41 42 42 39 39 39 39 39 42 38 38 39 38 39 41 41 42 41 39 38 37 37 37 38 39 39 40 41 42 40 38 37 36 36 36 37 36 34 35 35 35 37 38 40 41 41 42 43 43 44 44
47 47 47 47 47 47 46 45 44 43 43 43 42 42 42 40 39 39 40 40 40 39 38 38 39 38 39 40 41 42 41 38 37 37 37 37 38 39 39 39 40 36 36 36 36 36 37 37 38 38 37 35 35 37 40 41 41 40 42 43 42 43 43
46 47 47 47 47 47 46 45 44 43 43 43 42 42 40 39 39 39 40 40 40 41 41 39 39 37 38 39 40 41 41 39 38 37 37 38 38 39 39 39 39 38 37 37 37 37 37 37 38 40 39 39 39 39 39 41 41 42 42 42 42 42 42
45 46 47 47 46 46 47 46 45 44 44 43 42 42 40 39 39 39 39 40 40 40 41 41 39 38 37 38 38 38 39 39 38 38 38 38 39 39 39 39 39 38 37 37 37 37 37 37 37 39 34 34 34 37 41 41 41 41 41 41 41 41 41
43 44 45 45 45 46 46 47 45 45 44 43 42 42 42 41 40 40 39 39 40 40 39 39 38 38 37 37 37 37 37 38 37 40 39 39 38 39 39 39 39 38 36 37 37 37 38 38 38 35 35 36 36 37 40 41 40 41 40 40 40 39 39
41 42 43 44 44 44 45 46 46 45 44 44 43 43 42 42 41 40 40 40 40 40 39 38 38 37 37 36 36 36 37 37 38 39 39 38 38 38 38 38 38 36 36 36 36 36 36 37 37 37 38 38 38 39 41 40 40 39 38 38 38 38 37

ECMWFFLT1_sfc_dewp_072.txt.gz
Dewpoint
63 63 63 63 64 64 64 64 64 64 64 64 64 64 64 64 63 63 63 63 63 63 64 63 63 63 62 62 62 62 62 62 62 61 61 61 59 59 60 59 58 58 59 58 58 56 55 54 56 60 60 60 61 61 60 61 61 61 61 60 57 56 56
63 62 63 63 63 63 63 63 64 64 64 64 64 64 64 64 64 63 63 63 63 63 64 63 63 63 62 62 62 62 62 62 62 61 61 61 60 59 58 57 58 58 58 58 58 56 56 55 55 57 57 59 60 60 60 61 61 61 62 60 58 56 57
62 62 63 62 63 63 63 63 63 63 63 64 63 63 63 64 64 63 63 63 63 63 64 63 63 62 62 62 62 62 62 62 62 61 61 62 61 60 59 58 57 57 57 57 57 56 56 57 55 56 57 57 57 59 59 60 60 61 61 60 58 55 55
62 62 62 62 62 62 62 62 62 62 62 62 63 63 63 64 63 64 63 63 63 63 64 63 63 63 62 62 62 61 61 61 61 61 61 61 61 60 59 59 58 57 57 56 56 56 56 55 56 56 57 58 57 57 59 60 60 60 60 58 57 56 55
63 62 62 62 63 62 62 62 62 61 61 62 62 63 63 63 63 63 63 63 63 63 63 63 63 63 63 62 62 61 61 61 61 61 61 61 61 60 60 59 59 59 58 57 57 57 56 56 56 55 56 57 57 56 56 58 59 60 59 57 56 55 54
63 63 63 63 63 63 63 62 61 61 61 61 62 62 63 63 63 63 63 62 62 63 63 63 63 63 63 62 62 61 62 61 61 61 60 60 61 60 60 59 59 58 58 58 58 57 56 57 56 56 56 58 55 55 53 57 57 57 58 55 55 54 53
62 62 62 62 63 63 62 61 61 61 60 60 61 62 63 63 63 63 62 62 62 62 62 63 63 63 62 62 62 62 61 62 62 61 61 61 61 61 61 59 59 59 59 58 58 57 57 57 57 56 56 56 55 54 49 54 50 56 52 54 53 53 53
61 62 61 62 62 61 61 61 61 61 61 60 61 62 62 63 63 62 62 62 62 62 62 62 63 62 62 62 62 61 61 62 61 61 61 60 60 60 60 60 59 59 58 58 58 58 57 57 57 57 56 54 52 51 50 47 49 56 55 49 51 52 52
61 61 60 61 61 62 61 61 61 61 61 61 61 62 61 62 62 62 62 62 62 62 62 62 62 62 62 62 62 62 61 61 61 61 61 60 61 60 60 60 59 59 59 59 58 58 58 58 58 58 57 55 53 51 49 50 49 52 49 50 47 51 52
61 61 61 61 61 61 61 61 61 61 60 61 61 62 61 61 61 61 62 62 62 62 62 62 62 62 61 62 61 61 61 61 61 61 61 60 61 61 60 60 60 60 59 59 59 58 58 58 58 58 57 55 55 53 50 50 49 51 49 50 51 49 51
62 62 61 61 60 61 61 60 60 60 60 61 61 61 62 61 62 62 61 61 61 62 62 62 62 62 61 61 61 61 62 61 61 60 60 61 60 60 60 59 60 60 59 59 59 59 58 58 58 58 57 56 55 53 52 51 51 50 49 47 50 48 49
61 61 61 61 60 60 60 60 60 60 60 61 61 61 61 61 61 62 61 61 61 61 62 62 62 62 61 61 61 61 61 61 61 60 60 60 60 60 59 59 59 59 59 60 59 59 59 58 58 58 58 56 54 54 52 52 50 50 47 49 47 45 48
60 61 61 60 60 60 61 61 60 60 60 61 61 61 61 61 61 61 61 61 61 62 62 62 62 62 61 61 61 61 61 61 60 60 59 60 60 60 60 59 59 59 59 59 59 59 59 58 59 58 58 56 54 53 53 51 51 50 46 49 49 43 47
60 60 60 61 61 60 61 61 61 60 60 60 61 61 61 61 61 61 61 61 61 61 61 61 61 61 61 61 61 61 61 61 60 60 60 59 60 60 60 60 59 59 59 60 59 59 58 58 58 58 57 56 54 53 52 51 49 43 41 46 48 43 47
60 60 60 61 61 61 61 60 60 60 60 60 61 61 61 61 61 61 61 61 61 61 61 61 61 61 61 61 60 61 60 60 61 60 60 60 60 60 60 60 59 59 59 60 59 58 58 58 57 59 56 55 53 52 52 50 48 46 44 43 45 45 46
60 60 60 61 61 61 61 61 61 61 61 60 61 61 61 61 61 61 61 61 60 60 60 61 61 61 61 60 60 60 61 61 61 60 60 60 60 60 59 59 59 59 59 59 59 60 59 59 58 58 57 55 53 53 48 48 46 44 43 42 45 43 45
60 60 60 60 60 61 61 61 61 61 60 60 61 61 61 61 60 60 60 60 60 60 60 60 60 61 61 61 60 60 60 61 61 60 60 60 60 60 60 59 59 59 59 59 58 59 59 59 58 58 58 57 55 52 51 52 49 48 44 42 43 40 43
60 60 60 60 60 60 60 61 61 61 60 60 60 60 60 60 60 60 60 60 60 60 60 60 60 60 61 61 59 60 60 61 60 60 60 60 61 60 60 60 59 59 59 59 57 58 58 58 58 58 58 58 57 54 51 50 48 48 45 44 44 43 45
59 59 59 59 60 60 60 61 61 61 60 60 60 60 60 60 60 60 59 59 59 59 60 60 59 60 60 60 59 60 60 60 60 60 60 60 61 60 60 60 59 59 59 59 58 58 58 58 58 58 58 58 58 56 54 50 47 47 46 45 45 44 44
58 58 58 58 59 60 60 61 61 61 60 60 60 59 59 59 59 59 59 59 59 59 59 59 59 59 59 59 59 59 59 60 59 59 59 59 60 60 60 60 59 59 59 59 59 58 58 58 58 58 58 58 58 57 55 53 47 46 45 44 44 45 44
59 59 59 59 59 59 60 60 60 61 60 60 59 59 59 59 59 59 58 58 58 58 58 58 58 58 58 58 58 59 59 58 58 58 58 58 59 59 59 59 59 59 59 59 59 58 58 58 58 57 57 58 58 57 55 52 49 48 47 44 43 43 44
59 59 59 59 59 59 60 60 60 60 60 60 59 59 59 58 56 55 54 54 53 54 55 55 55 56 56 56 57 57 58 58 57 57 56 56 57 57 57 57 57 57 59 60 56 55 56 57 58 58 57 57 57 57 55 50 48 49 48 45 43 45 43
57 58 58 59 59 59 59 60 60 59 59 59 59 57 56 55 54 52 50 50 50 51 51 50 51 50 52 55 55 55 56 57 57 56 56 56 56 55 55 56 59 60 58 57 53 51 50 51 54 57 58 57 57 56 55 51 48 48 48 48 46 44 43
55 57 58 58 59 59 59 59 59 59 58 57 56 55 55 53 52 50 49 48 48 48 47 46 42 42 46 49 53 54 55 55 55 56 56 56 55 53 52 52 53 55 53 53 52 47 46 47 49 49 50 53 55 56 53 50 49 48 47 46 45 44 43
53 57 58 58 58 58 59 58 58 56 55 54 54 53 53 51 49 48 48 47 46 46 44 43 40 41 43 45 49 54 54 55 55 55 56 55 53 52 50 49 49 51 53 50 52 50 47 44 42 41 40 40 41 42 46 52 51 47 49 48 45 45 44
52 56 56 57 57 56 56 55 54 53 52 52 51 51 49 48 47 47 46 45 45 46 44 41 40 41 44 45 47 51 55 55 55 55 54 53 51 50 49 48 48 48 50 53 51 49 47 46 43 42 42 43 42 40 39 39 42 52 49 49 47 45 44
51 52 53 54 54 53 51 50 50 50 49 49 48 48 47 47 47 46 46 46 45 44 45 42 42 43 43 44 46 50 54 54 53 53 51 50 49 48 48 48 47 47 47 48 48 49 50 49 47 45 44 44 44 44 43 43 43 43 45 48 47 46 49
49 50 50 49 49 48 48 47 46 46 46 46 45 45 45 45 46 45 45 45 44 44 44 42 41 42 43 44 45 46 49 47 46 44 43 43 43 43 44 45 46 46 47 48 50 50 49 47 45 44 43 43 43 43 44 45 47 50 51 51 51 51 51
48 48 48 47 46 46 45 44 43 44 43 43 43 43 43 43 43 42 43 44 46 46 45 41 41 41 42 42 43 46 45 43 42 41 40 40 39 39 40 42 43 45 47 49 48 45 46 46 43 42 42 42 43 44 44 43 41 43 48 50 50 50 48
47 47 46 46 45 45 45 44 44 43 42 42 42 42 41 41 41 42 42 43 45 44 44 41 40 40 41 41 42 44 43 41 41 41 42 42 42 41 40 38 40 42 44 46 45 43 42 41 41 40 40 41 42 43 44 45 42 41 41 41 40 40 41
46 46 45 44 44 43 43 43 43 43 42 42 42 42 42 42 42 42 42 43 43 43 42 41 39 39 40 40 42 42 41 40 39 39 40 40 41 42 44 43 40 39 41 41 39 41 40 43 43 43 42 41 42 43 43 44 45 46 41 41 40 40 41
46 45 44 44 44 43 42 42 43 43 43 42 42 43 43 42 43 42 42 42 44 42 42 41 39 39 39 39 41 40 39 38 38 38 39 39 39 39 39 41 42 40 40 38 36 36 38 42 42 41 39 40 41 42 43 44 45 45 45 44 45 44 43
46 46 44 44 44 44 44 43 43 43 43 43 43 43 43 42 41 41 42 42 41 41 41 40 40 38 39 39 39 40 40 38 37 38 38 38 39 40 40 40 40 37 36 36 36 36 36 36 39 39 39 38 40 41 42 44 44 45 44 43 43 43 43
44 45 46 45 45 45 44 44 43 43 43 43 42 42 42 41 41 41 41 41 41 41 41 39 39 37 38 38 38 39 39 38 38 39 39 39 40 40 39 39 39 38 37 37 37 37 37 37 39 41 41 41 42 42 42 44 43 43 43 43 42 42 41
43 44 45 46 44 44 45 44 44 44 43 43 42 41 41 41 41 41 41 41 40 40 41 41 39 37 37 37 37 38 39 40 40 39 40 40 39 39 39 39 39 38 37 37 37 37 37 37 38 40 38 37 38 39 43 44 43 42 41 41 40 41 41
42 43 43 44 45 44 45 44 44 43 43 43 42 41 41 41 41 41 40 41 40 40 39 39 38 38 37 37 37 37 37 39 38 41 40 39 39 39 39 38 38 38 36 37 37 37 38 38 39 38 37 38 38 38 40 41 40 40 40 40 40 39 40
41 41 42 43 44 44 44 44 44 44 43 43 42 41 41 41 40 40 40 40 40 41 40 39 38 37 37 36 37 37 37 37 38 40 40 39 39 38 37 37 37 36 36 36 36 36 36 37 38 37 37 37 38 39 41 40 39 39 38 38 38 38 38

ECMWFFLT1_sfc_dewp_075.txt.gz
Dewpoint
64 64 65 66 67 65 64 65 65 65 66 66 66 65 65 65 65 66 66 66 65 65 64 66 66 66 65 64 65 65 64 63 64 62 61 61 60 60 62 62 62 62 61 63 59 55 54 54 56 61 61 62 62 62 61 61 61 62 62 62 60 60 61
65 65 66 65 64 63 63 65 65 65 65 65 66 66 65 65 65 65 65 65 66 66 65 65 66 65 65 64 64 64 64 64 64 64 63 61 61 60 61 60 60 60 60 63 61 58 55 53 54 56 58 61 62 61 61 61 61 62 61 61 60 59 61
65 65 64 64 64 63 63 63 65 64 64 64 65 65 65 64 64 64 65 65 65 65 65 65 65 65 65 64 64 64 64 64 64 64 63 63 62 62 61 60 59 59 59 59 59 58 58 57 54 53 56 57 57 59 61 61 61 62 61 61 61 59 59
64 64 63 63 64 63 62 64 63 63 64 64 65 65 65 65 64 64 64 64 65 65 64 65 66 65 65 65 64 63 64 63 63 64 64 64 63 62 61 60 59 59 59 58 58 58 58 56 54 55 55 55 55 58 60 60 61 61 60 61 60 59 60
65 64 63 63 64 63 64 64 63 62 62 63 64 64 64 64 64 64 64 64 65 65 65 65 65 65 65 65 65 63 63 64 65 64 64 64 63 62 62 61 61 61 61 60 59 59 58 57 56 54 54 55 55 54 57 60 60 60 60 59 59 59 59
66 64 63 63 63 63 64 63 63 62 63 62 63 63 64 64 64 64 64 65 65 65 65 65 65 65 65 65 65 64 65 63 63 63 62 62 63 61 61 61 61 61 61 61 61 59 59 58 57 55 53 55 54 54 56 59 59 59 59 59 58 58 58
64 63 63 62 64 64 64 64 64 63 63 62 62 63 64 64 64 65 65 65 65 64 64 64 65 65 65 64 63 63 63 64 64 64 63 63 63 63 63 62 62 61 61 61 61 60 59 59 58 56 55 55 55 52 54 57 58 57 58 58 58 58 57
64 64 63 63 63 63 64 64 64 64 63 64 64 63 64 64 64 64 64 64 64 65 64 65 64 65 64 63 63 63 63 63 63 63 64 64 63 63 63 63 63 62 62 60 61 60 59 59 58 58 55 54 54 54 53 56 56 56 56 57 58 58 58
64 64 64 63 63 64 65 65 65 65 64 64 64 63 63 64 63 63 64 64 64 64 64 64 64 64 63 63 63 63 63 63 63 63 63 63 62 63 64 64 63 63 63 61 60 61 59 60 59 59 58 56 53 51 53 54 55 55 56 55 56 57 58
63 63 63 64 64 64 65 65 64 64 65 64 64 64 63 63 64 64 63 63 64 64 64 64 64 64 64 64 64 64 63 63 63 62 63 62 63 64 64 64 63 63 63 63 61 61 61 60 60 59 57 56 55 52 51 52 54 54 55 54 53 55 56
61 62 63 63 63 64 64 63 63 63 63 64 64 63 63 63 64 64 64 63 64 63 64 64 64 63 64 64 63 63 63 63 63 63 62 62 63 64 64 63 63 63 63 63 61 63 62 61 60 59 58 57 57 54 53 51 53 54 55 55 56 53 55
61 61 62 63 64 63 63 63 63 63 63 63 63 62 63 62 63 63 63 63 63 63 63 64 64 63 63 63 63 63 63 63 62 62 63 63 63 63 62 63 63 63 64 63 63 63 62 61 60 60 59 58 58 58 56 53 51 56 57 56 55 55 54
61 61 62 63 63 62 62 62 62 63 62 62 62 62 62 62 62 62 63 63 63 62 63 63 63 63 63 63 63 63 63 62 62 62 61 62 62 62 62 61 62 63 63 62 63 62 61 61 61 59 60 59 58 59 57 55 53 54 55 55 55 54 54
61 61 62 62 62 63 62 62 62 62 62 62 62 62 62 62 62 62 62 62 62 62 62 62 63 63 63 62 63 62 62 62 61 62 61 62 62 62 61 61 62 62 63 63 62 62 61 60 61 61 60 60 58 59 57 56 54 54 52 52 54 52 53
61 62 62 62 61 61 62 62 62 62 63 62 62 62 62 62 62 62 62 62 62 62 62 62 62 62 62 62 62 62 62 62 61 61 62 61 62 61 62 62 62 62 62 62 62 61 60 60 59 59 59 59 58 58 58 55 54 54 52 51 49 49 52
60 61 62 62 62 62 62 62 63 63 62 62 62 62 62 62 62 62 62 62 62 61 61 61 62 62 62 62 62 62 62 62 61 61 60 61 60 61 61 62 62 62 62 62 61 61 62 61 60 59 59 59 58 58 56 55 55 54 53 49 50 47 50
60 60 60 61 61 62 62 62 62 62 62 62 62 62 62 62 62 62 62 61 61 61 61 62 62 62 62 62 62 61 61 61 62 61 61 61 60 61 61 62 61 62 62 61 61 62 62 61 60 60 60 61 60 58 58 57 56 56 54 49 48 43 47
58 59 60 61 61 61 62 62 62 61 62 62 62 62 62 62 62 61 62 61 61 61 61 61 61 62 62 63 62 62 61 61 62 62 62 62 61 61 62 62 62 61 62 61 61 61 61 61 59 60 62 61 59 59 58 57 56 55 54 53 50 46 48
55 56 58 60 60 61 61 61 61 61 61 61 62 62 62 62 61 61 61 61 61 61 61 61 61 61 61 62 62 62 61 61 62 61 62 61 62 61 63 63 62 61 62 61 61 62 62 61 60 61 61 62 59 59 59 57 56 55 54 53 51 48 47
54 56 57 59 60 60 60 60 60 60 61 61 61 61 61 61 62 61 61 61 61 61 61 61 61 61 61 61 61 61 61 61 61 61 62 61 61 62 63 63 63 63 62 62 62 62 62 62 61 61 62 63 60 59 59 57 55 56 58 52 50 50 48
52 54 55 57 58 60 60 60 60 60 61 61 61 61 61 61 61 61 61 61 61 61 61 61 61 61 61 61 61 61 61 61 61 61 61 61 61 61 63 64 63 63 63 63 63 63 62 62 62 61 62 62 61 61 59 58 56 54 53 53 51 50 48
51 52 53 55 58 58 59 60 60 60 60 61 62 61 62 61 61 61 61 61 61 61 61 61 61 61 61 61 61 61 61 60 61 60 60 61 60 61 62 62 63 62 63 63 59 60 59 59 61 61 61 61 62 61 60 59 57 53 53 52 50 50 48
50 51 53 55 57 58 59 59 60 60 60 60 61 61 61 61 61 60 60 60 60 61 61 61 58 55 56 60 61 60 60 60 61 60 60 60 60 60 60 61 62 61 59 57 54 52 52 53 56 60 61 60 60 61 60 59 57 56 55 53 50 48 48
49 51 53 55 57 58 58 59 59 59 60 60 60 61 61 60 60 60 60 59 59 60 60 59 51 48 49 52 59 59 60 60 60 60 59 59 60 60 60 60 61 60 59 56 56 48 48 48 50 53 55 56 58 62 60 59 58 57 55 55 53 53 51
49 50 50 51 53 55 58 58 59 59 60 60 60 60 60 60 59 59 59 59 59 59 58 50 45 46 47 49 53 59 60 59 59 59 59 59 60 60 59 59 58 59 60 60 59 55 49 43 42 41 42 44 47 47 46 58 59 57 57 56 54 53 52
47 48 48 48 49 49 50 51 52 52 55 58 58 58 58 58 58 58 57 56 56 56 53 42 42 44 45 46 49 55 59 60 59 59 59 59 58 57 56 56 56 57 56 57 58 57 55 50 43 42 43 43 43 41 41 43 43 57 58 57 58 56 53
46 46 47 47 46 46 46 46 47 48 50 52 53 54 54 54 54 54 54 54 55 54 50 42 41 42 43 44 47 53 59 59 59 58 58 57 56 56 56 55 55 55 57 57 58 57 55 53 52 52 52 53 52 50 46 45 43 43 50 58 57 55 54
45 45 45 45 45 44 44 45 44 45 45 47 47 47 48 48 49 50 50 51 51 51 48 41 41 42 43 45 47 50 56 56 54 54 54 54 54 55 55 55 55 55 56 57 57 55 54 52 51 51 51 51 51 50 50 51 54 55 54 55 57 56 55
44 43 43 43 43 43 44 44 44 45 45 45 45 46 46 46 46 47 48 48 49 48 46 40 41 43 44 44 46 53 53 51 50 49 49 49 49 50 51 54 54 55 55 55 48 44 47 50 50 50 50 51 50 49 46 43 41 44 50 53 52 51 49
44 43 43 43 42 43 43 43 44 45 44 44 45 45 44 45 45 45 45 45 45 45 45 41 39 42 43 43 46 50 50 49 49 48 48 47 47 48 49 51 54 54 54 52 44 40 41 45 49 49 49 50 50 50 48 46 41 40 40 40 40 40 40
44 43 43 43 43 43 44 44 44 44 44 43 44 44 45 44 44 44 44 44 44 44 45 41 38 39 41 44 47 49 49 48 48 47 46 47 47 47 46 48 50 54 53 49 39 39 40 46 48 48 49 50 49 48 47 48 46 45 40 40 40 40 41
44 44 43 43 44 43 44 44 44 45 45 44 44 44 45 43 43 43 43 43 44 42 42 41 38 38 38 41 46 48 46 45 45 44 43 43 44 44 44 43 43 47 50 45 38 38 40 46 50 50 50 50 49 48 48 48 47 46 46 46 47 47 47
44 44 44 44 44 44 44 44 44 45 45 44 44 44 43 42 42 42 42 42 42 42 42 41 40 37 38 38 40 45 45 44 42 42 42 41 43 44 43 43 41 36 37 37 36 36 38 43 49 50 49 49 47 46 47 47 47 45 45 44 44 45 45
44 45 45 44 45 45 45 45 45 44 44 45 44 43 43 42 42 41 42 42 42 42 42 41 41 37 38 38 38 41 44 43 42 42 41 41 41 41 41 41 41 38 36 36 36 37 37 38 41 48 48 47 46 46 43 43 43 42 44 44 43 43 42
44 44 45 45 44 44 45 45 45 45 45 45 43 43 42 42 42 42 42 42 42 41 42 41 42 39 37 38 38 39 42 43 43 42 41 41 40 41 41 41 39 38 36 36 37 37 37 38 39 44 44 40 39 40 45 44 43 42 42 42 41 40 41
43 43 44 44 44 44 44 43 43 44 44 44 43 42 42 42 42 42 42 42 42 42 42 42 38 40 38 37 38 38 38 41 39 43 43 42 42 41 41 41 40 38 37 37 38 38 38 39 41 41 38 38 38 38 40 42 42 42 41 42 42 41 41
42 42 43 43 43 42 42 42 41 42 43 43 43 42 42 42 42 41 41 41 41 42 42 42 40 38 38 37 37 37 37 38 39 42 41 41 41 42 40 40 38 36 36 36 36 37 37 39 40 37 37 37 38 39 41 41 41 42 41 40 40 40 40